sat.trackr.live / text

‹ back to catalog

HULIANWANG DIGUI-83

NORAD 65818 · 2025-220B

PAYLOAD ACTIVE UNKNOWN

§ Identity

Operator
Country
PRC
Launch date
2025-09-27
Launch site
TAISC
Launch vehicle
Mass (kg)
RCS (m²)

External: N2YO · Heavens-Above · Gunter

§ Orbital elements

Epoch: 2026-05-25T04:33:41.157216Z

Period
108.73 min
Inclination
86.5007°
Eccentricity
0.0001359
Mean motion
13.24406185 rev/d
Perigee alt
1,166.9 km
Apogee alt
1,169.0 km
Semi-major
7,546.1 km
B*
5.1374e-5
RAAN
51.6710°
Arg perigee
66.6176°
Mean anomaly
293.5100°
Rev number
3,187

§ Raw data

HULIANWANG DIGUI-831 65818U 25220B   26145.19005969  .00000037  00000+0  51374-4 0  99992 65818  86.5007  51.6710 0001359  66.6176 293.5100 13.24406185 31879

JSON: /api/v1/satellites/65818 · /tle

For live sub-satellite position, see the globe view (requires WebGL).

§ Visibility from observer

Set your observer location to see the next 7 days of passes ≥ 10°. The values pass through the URL so the page stays shareable.

No JS? Fill the form by hand. The geolocation button needs JavaScript.